[[{"header":{"parameterUnit":"m.s-1","parameterCategory":2,"la1":30.2991,"la2":30.254,"lo1":-89.0895,"lo2":-89.0444,"dy":0.0017,"dx":0.0017,"nx":28,"ny":28,"refTime":"2024-03-03T09:00:00:Z","depth":"0","parameterNumber":2,"parameterNumberName":"U-component_of_CURRENTS"},"data":[0,0,0,0,0,0,0,0,0,0,0,0,0,0,0,0,0,0,0,0,0,0,0,0,0,0,0,0,0,0,0,0,0,0,0,0,0,0,0,0,0,0,0,0,0,0,0,0,0,0,0,0,0,0,0,0,0,0,0.305,0.3049,0,0.3004,0.3004,0.3003,0.2963,0.2963,0.2962,0.2962,0.2926,0.2926,0.2925,0,0,0,0,0,0,0,0,0,0,0,0,0,0.312,0.3119,0.305,0.3049,0.3049,0.3004,0.3004,0.3003,0.2963,0.2963,0.2962,0.2962,0.2927,0.2926,0.2925,0,0,0,0,0,0,0,0,0,0,0,0,0,0.3081,0.3118,0.305,0.3026,0.3023,0.3005,0.3003,0.3002,0.2963,0.2963,0.2962,0.2962,0.2927,0.2926,0.2925,0.2924,0,0,0.2921,0.2921,0,0,0,0,0,0,0,0,0.3083,0.3078,0.303,0.3027,0.3025,0.2991,0.3015,0.2978,0.2963,0.2983,0.2962,0.2962,0.2951,0.2948,0.2936,0.2922,0.2921,0.2921,0.2921,0.292,0.292,0,0,0,0,0,0,0,0.3086,0.308,0.3029,0.3029,0.3026,0.3024,0.3018,0.3008,0.2967,0.2981,0.2979,0.2978,0.2949,0.2937,0.2935,0.292,0.2921,0.292,0.292,0.2919,0.2946,0.2948,0,0,0,0,0,0,0.3096,0.3082,0.303,0.3028,0.3057,0.3023,0.3016,0.3,0.2967,0.2963,0.2979,0.2977,0.2939,0.2936,0.2934,0.2961,0.292,0.2919,0.2918,0.2945,0.2947,0.2948,0,0,0,0,0,0,0.3098,0.3091,0.3032,0.3057,0.305,0.3022,0.3005,0.2999,0.2995,0.2966,0.2961,0.2981,0.2939,0.2935,0.2937,0.2959,0.2918,0.2917,0.2943,0.2945,0.2947,0.2997,0,0,0,0,0,0,0.31,0.3092,0.3086,0.3057,0.3049,0.3034,0.3005,0.2999,0.2996,0.2993,0.2966,0.2962,0.2938,0.2939,0.2936,0.2956,0.2917,0.2942,0.2944,0.2947,0.2994,0.3001,0.3007,0,0,0,0,0,0.3102,0.3094,0.3085,0.308,0.304,0.3036,0.3031,0.3009,0.2996,0.3002,0.2984,0.2963,0.2954,0.2939,0.2935,0.2956,0.294,0.2943,0.2947,0.2991,0.3,0.3007,0,0,0,0,0,0,0.3113,0.3089,0.3079,0.3061,0.3057,0.303,0.3031,0.3018,0.3006,0.3004,0.2974,0.2969,0.2985,0.2966,0.295,0.2974,0.2947,0.2949,0.2982,0.299,0.2996,0.3038,0.2916,0,0,0,0,0,0.3116,0.3107,0.309,0.3078,0.3079,0.3058,0.3054,0.3042,0.3028,0.3022,0.3003,0.2991,0.2994,0.2987,0.2986,0.299,0.3017,0.3004,0.3011,0.3016,0.305,0.3101,0.3116,0.2959,0.2959,0.2958,0,0,0.3117,0.3104,0.3098,0.3082,0.3074,0.3077,0.3054,0.3054,0.3061,0.3021,0.3024,0.3017,0.3004,0.3015,0.302,0.2998,0.3077,0.302,0.3025,0.3056,0.3106,0.3122,0.3135,0.2961,0.296,0.296,0,0,0.3123,0.3106,0.3106,0.3107,0.3105,0.3096,0.3103,0.3087,0.3087,0.3084,0.3073,0.3088,0.306,0.3073,0.3071,0.3116,0.3117,0.3106,0.3161,0.3209,0.3223,0.3236,0.3296,0.3313,0.3099,0.3099,0.3099,0,0.3128,0.3115,0.3108,0.3114,0.3117,0.311,0.3118,0.3121,0.3108,0.312,0.3092,0.3106,0.3096,0.3137,0.3155,0.3134,0.3163,0.3126,0.3219,0.3232,0.3244,0.3302,0.3321,0.3102,0.3102,0.3101,0.3101,0,0.3135,0.3129,0.3134,0.3135,0.3144,0.315,0.3158,0.3171,0.3163,0.3161,0.3197,0.3189,0.32,0.3199,0.3188,0.3271,0.3267,0.3228,0.32,0.3263,0.332,0.3339,0.3106,0.3105,0.3104,0.3103,0,0,0.3131,0.3136,0.3137,0.3138,0.3155,0.3156,0.3193,0.3218,0.3245,0.3241,0.3285,0.3299,0.3304,0.3309,0.3305,0.3352,0.346,0.3332,0.3333,0.3395,0.3586,0.3507,0.3519,0.3431,0.3435,0.3437,0.3594,0,0.3139,0.3142,0.3153,0.3165,0.3166,0.3189,0.3223,0.325,0.3269,0.3313,0.3338,0.3373,0.3341,0.3359,0.3403,0.3451,0.3511,0.3423,0.3515,0.3519,0.3442,0.3538,0.3366,0.3484,0.3612,0.3615,0.3617,0,0.3136,0.314,0.3148,0.3171,0.3178,0.3193,0.3248,0.3275,0.335,0.3374,0.3423,0.3446,0.3536,0.3491,0.3612,0.3555,0.3594,0.3622,0.3627,0.3555,0.3474,0.3441,0.3513,0.3423,0.3645,0.3643,0.3641,0,0.3112,0.3131,0.3135,0.3141,0.3175,0.3198,0.3221,0.3287,0.3333,0.3427,0.3479,0.3557,0.3612,0.3673,0.373,0.3684,0.3866,0.3793,0.3767,0.3761,0.3638,0.3615,0.3636,0.3904,0.3904,0.3903,0.3903,0,0.3098,0.3096,0.3121,0.3119,0.3144,0.3176,0.3224,0.3269,0.3366,0.3431,0.3506,0.3593,0.3664,0.3761,0.3793,0.3848,0.3912,0.3823,0.3808,0.3648,0.3626,0.3556,0.3502,0.3909,0.3908,0.3907,0.3906,0,0.3053,0.3069,0.3074,0.3113,0.3125,0.3138,0.3215,0.3256,0.3355,0.3455,0.35,0.3653,0.3777,0.3848,0.3969,0.3921,0.3869,0.399,0.3806,0.3765,0.3593,0.3547,0.3463,0.3363,0.3976,0.3975,0.3974,0,0.302,0.3018,0.3056,0.3063,0.3076,0.3108,0.3138,0.3234,0.3287,0.3486,0.3536,0.3714,0.3815,0.3967,0.3945,0.3996,0.3881,0.3839,0.3707,0.3602,0.3542,0.3403,0.3314,0.3577,0.3573,0.357,0.3567,0,0.2963,0.2984,0.2996,0.3017,0.3037,0.3065,0.3113,0.3163,0.3287,0.3394,0.3553,0.3668,0.3817,0.3791,0.3842,0.384,0.3623,0.3772,0.371,0.3289,0.3093,0.2981,0.3474,0.3538,0.3541,0.3543,0.3545,0.3546,0.2923,0.292,0.2944,0.2952,0.298,0.2997,0.2991,0.3074,0.3159,0.327,0.346,0.3544,0.3605,0.3652,0.3641,0.3463,0.3454,0.3313,0.3292,0.3183,0.2994,0.3433,0.3435,0.3437,0.3439,0.344,0.3442,0,0.2847,0.2854,0.287,0.2872,0.2862,0.2906,0.2948,0.2932,0.298,0.312,0.3233,0.326,0.3248,0.327,0.3151,0.3,0.2861,0.2903,0.2678,0.2634,0.308,0.2968,0.2807,0.2807,0.2807,0.2807,0.2807,0.2807,0.2808,0.2779,0.2782,0.2734,0.2739,0.2687,0.2684,0.2695,0.2755,0.2774,0.2767,0.2845,0.2925,0.2898,0.2749,0.2681,0.2473,0.2322,0.2355,0.2678,0.2714,0.2749,0.2633,0.2404,0.2403,0.1783,0.1779,0.1775]},{"header":{"parameterUnit":"m.s-1","parameterCategory":2,"la1":30.2991,"la2":30.254,"lo1":-89.0895,"lo2":-89.0444,"dy":0.0017,"dx":0.0017,"nx":28,"ny":28,"refTime":"2024-03-03T09:00:00:Z","depth":"0","parameterNumber":3,"parameterNumberName":"V-component_of_CURRENTS"},"data":[0,0,0,0,0,0,0,0,0,0,0,0,0,0,0,0,0,0,0,0,0,0,0,0,0,0,0,0,0,0,0,0,0,0,0,0,0,0,0,0,0,0,0,0,0,0,0,0,0,0,0,0,0,0,0,0,0,0,0.0012,0.0012,0,-0.0015,-0.0016,-0.0016,-0.0046,-0.0046,-0.0046,-0.0046,-0.0121,-0.0122,-0.0124,0,0,0,0,0,0,0,0,0,0,0,0,0,-0.0009,-0.0008,0.0012,0.0012,0.0012,-0.0015,-0.0016,-0.0016,-0.0046,-0.0046,-0.0046,-0.0046,-0.012,-0.0122,-0.0124,0,0,0,0,0,0,0,0,0,0,0,0,0,-0.0016,-0.0008,0.0012,-0.0004,-0.0006,-0.0015,-0.0016,-0.0016,-0.0046,-0.0046,-0.0046,-0.0047,-0.0119,-0.0122,-0.0125,-0.0134,0,0,-0.0133,-0.0134,0,0,0,0,0,0,0,0,-0.0015,-0.0015,-0.0002,-0.0003,-0.0005,-0.0025,-0.005,-0.0057,-0.0045,-0.0033,-0.0046,-0.0047,-0.0092,-0.0096,-0.0103,-0.0138,-0.0141,-0.0133,-0.0135,-0.0136,-0.0136,0,0,0,0,0,0,0,-0.0015,-0.0015,-0.0001,-0.0002,-0.0004,-0.0027,-0.0028,-0.0052,-0.0063,-0.0034,-0.0036,-0.0035,-0.0093,-0.0101,-0.0105,-0.0142,-0.0133,-0.0135,-0.0137,-0.0138,-0.0183,-0.0183,0,0,0,0,0,0,-0.0004,-0.0014,0.0,-0.0001,-0.0009,-0.0026,-0.0027,-0.002,-0.0061,-0.0067,-0.0035,-0.0036,-0.0096,-0.0102,-0.0108,-0.0108,-0.0136,-0.0138,-0.014,-0.0184,-0.0183,-0.0183,0,0,0,0,0,0,-0.0004,-0.0002,0.0001,-0.0007,-0.0008,-0.0024,-0.0017,-0.0021,-0.0026,-0.0061,-0.0068,-0.0035,-0.0096,-0.0104,-0.012,-0.0111,-0.0139,-0.0142,-0.0184,-0.0183,-0.0183,-0.0116,0,0,0,0,0,0,-0.0005,-0.0002,0.0003,-0.0006,-0.0007,0.0004,-0.0016,-0.0021,-0.0024,-0.0026,-0.0064,-0.0071,-0.0097,-0.0116,-0.0123,-0.0116,-0.0144,-0.0185,-0.0184,-0.0183,-0.0119,-0.0113,-0.0109,0,0,0,0,0,-0.0005,0.0009,0.0004,0.0005,0.0002,0.0005,0.0002,-0.0013,-0.0023,-0.002,-0.0044,-0.007,-0.0117,-0.0118,-0.0126,-0.0119,-0.0185,-0.0184,-0.0183,-0.0121,-0.0114,-0.0109,0,0,0,0,0,0,0.0002,0.0007,0.0001,0.0016,0.0013,0.0001,0.0003,-0.0008,-0.0024,-0.0028,-0.0064,-0.0072,-0.0084,-0.011,-0.0111,-0.013,-0.0156,-0.0156,-0.0106,-0.01,-0.0095,-0.0078,-0.0146,0,0,0,0,0,0.0008,0.0019,0.0017,0.0028,0.003,0.0017,0.0014,0.0006,-0.0008,-0.0015,-0.0039,-0.0067,-0.0088,-0.0099,-0.0124,-0.0133,-0.0149,-0.0135,-0.013,-0.0125,-0.0117,-0.0141,-0.0137,-0.018,-0.018,-0.018,0,0,0.0012,0.0018,0.0022,0.003,0.0026,0.0038,0.0014,0.0017,0.0026,-0.0021,-0.0021,-0.0051,-0.0086,-0.0095,-0.0103,-0.0115,-0.0117,-0.0124,-0.012,-0.0114,-0.014,-0.0135,-0.0132,-0.0179,-0.0179,-0.0179,0,0,0.0034,0.0034,0.0052,0.0056,0.0058,0.0053,0.0058,0.0049,0.0044,0.004,0.001,-0.0011,-0.0043,-0.0063,-0.0078,-0.0061,-0.009,-0.0071,-0.003,-0.0053,-0.005,-0.0047,-0.0039,-0.0036,-0.0067,-0.0067,-0.0067,0,0.0037,0.0065,0.0057,0.0077,0.0087,0.0065,0.0089,0.0082,0.0068,0.007,0.0048,0.0006,-0.0027,-0.0033,-0.0027,-0.0049,-0.0056,-0.0049,-0.0046,-0.0044,-0.0042,-0.0035,-0.0032,-0.0064,-0.0064,-0.0065,-0.0065,0,0.0074,0.0095,0.0108,0.0129,0.0136,0.0152,0.0147,0.0151,0.0138,0.0127,0.0115,0.0069,0.0046,0.003,0.0006,0.0005,-0.0001,-0.0036,-0.0058,-0.0033,-0.0027,-0.0026,-0.0059,-0.006,-0.0061,-0.0062,0,0,0.0091,0.0127,0.0134,0.0159,0.0168,0.0183,0.0199,0.0212,0.023,0.0196,0.0215,0.0164,0.0134,0.0115,0.0077,0.0055,0.0064,0.0022,0.0019,0.0038,0.004,0.0036,0.0036,0.0027,0.0028,0.0028,0.0048,0,0.0126,0.0181,0.0187,0.0238,0.0268,0.0261,0.0284,0.0287,0.0279,0.0289,0.0238,0.0234,0.0168,0.0164,0.0128,0.0084,0.0067,0.0063,0.0006,0.0005,0.0004,0.0037,0.0054,0.0073,0.0049,0.0049,0.0049,0,0.0167,0.0202,0.0261,0.031,0.0323,0.0347,0.0386,0.0403,0.0402,0.0395,0.0368,0.033,0.0303,0.0238,0.0169,0.0171,0.0113,0.0069,0.0068,0.004,0.0003,0.0038,0.0076,-0.0067,0.0051,0.0051,0.005,0,0.0201,0.0258,0.0312,0.0328,0.0373,0.0402,0.0424,0.0436,0.0469,0.0468,0.0492,0.0428,0.0422,0.033,0.0241,0.0206,0.0173,0.0108,0.0051,0.0051,0.0043,0.0042,-0.006,0.0053,0.0053,0.0053,0.0053,0,0.0247,0.029,0.0337,0.0368,0.0441,0.045,0.0519,0.053,0.056,0.0623,0.0552,0.0597,0.0442,0.0404,0.0293,0.02,0.0211,0.0074,0.0054,0.0069,0.007,-0.0075,-0.0161,0.0054,0.0054,0.0054,0.0054,0,0.0284,0.031,0.0378,0.0436,0.0463,0.0516,0.0595,0.0644,0.0663,0.0747,0.0759,0.0733,0.0697,0.0557,0.0432,0.0287,0.0111,0.0146,0.0192,0.0176,-0.0047,-0.0128,-0.0234,-0.0299,0.0072,0.0072,0.0072,0,0.0311,0.0351,0.0432,0.0484,0.0518,0.0596,0.0657,0.0695,0.076,0.0853,0.091,0.09,0.0942,0.0763,0.0513,0.0329,0.0166,0.0175,0.0086,-0.0041,-0.0147,-0.0207,-0.0259,0.0115,0.0115,0.0115,0.0115,0,0.0369,0.0394,0.0451,0.0552,0.0629,0.0721,0.0813,0.0882,0.0953,0.105,0.1185,0.1237,0.1079,0.0902,0.0609,0.0455,0.0072,0.0172,0.002,-0.0134,-0.0185,-0.0261,0.0102,0.0118,0.0118,0.0117,0.0117,0.0117,0.0412,0.0465,0.0538,0.0636,0.0725,0.0843,0.0929,0.105,0.1196,0.1378,0.1406,0.1544,0.1229,0.0849,0.0606,0.0123,0.0103,-0.0049,-0.0134,-0.018,-0.0261,0.0124,0.0119,0.0118,0.0118,0.0118,0.0118,0,0.0476,0.0533,0.0621,0.0739,0.084,0.0877,0.1035,0.1144,0.1346,0.1558,0.1713,0.1663,0.1294,0.0866,0.0207,-0.0134,-0.0263,-0.0318,-0.0413,-0.0453,-0.0122,-0.0141,-0.0177,-0.0177,-0.0176,-0.0176,-0.0176,-0.0176,0.0515,0.0606,0.0648,0.0818,0.0902,0.1048,0.1144,0.1331,0.1509,0.1786,0.191,0.1974,0.1615,0.05,-0.0264,-0.0438,-0.0667,-0.0709,-0.0834,-0.0631,-0.0613,-0.0596,-0.0635,-0.0774,-0.0775,-0.112,-0.1124,-0.1126]}],[{"header":{"parameterUnit":"m.s-1","parameterCategory":2,"la1":30.2991,"la2":30.254,"lo1":-89.0895,"lo2":-89.0444,"dy":0.0017,"dx":0.0017,"nx":28,"ny":28,"refTime":"2024-03-03T09:00:00:Z","depth":"2","parameterNumber":2,"parameterNumberName":"U-component_of_CURRENTS"},"data":[0,0,0,0,0,0,0,0,0,0,0,0,0,0,0,0,0,0,0,0,0,0,0,0,0,0,0,0,0,0,0,0,0,0,0,0,0,0,0,0,0,0,0,0,0,0,0,0,0,0,0,0,0,0,0,0,0,0,0.2364,0.2365,0,0.238,0.238,0.238,0.2378,0.2378,0.2378,0.2378,0.2377,0.2377,0.2377,0,0,0,0,0,0,0,0,0,0,0,0,0,0.2335,0.2335,0.2364,0.2365,0.2365,0.238,0.238,0.238,0.2378,0.2378,0.2378,0.2378,0.2377,0.2377,0.2377,0,0,0,0,0,0,0,0,0,0,0,0,0,0.2346,0.2335,0.2364,0.2368,0.2368,0.238,0.238,0.238,0.2378,0.2378,0.2378,0.2378,0.2377,0.2377,0.2377,0.2378,0,0,0.2377,0.2377,0,0,0,0,0,0,0,0,0.2346,0.2347,0.2367,0.2368,0.2368,0.2379,0.2369,0.2379,0.2378,0.2372,0.2378,0.2378,0.2378,0.2378,0.2378,0.2378,0.2378,0.2377,0.2377,0.2377,0.2377,0,0,0,0,0,0,0,0.2345,0.2346,0.2368,0.2367,0.2368,0.2369,0.237,0.2371,0.2373,0.2372,0.2373,0.2378,0.2378,0.2378,0.2378,0.2378,0.2377,0.2377,0.2377,0.2377,0.2427,0.2429,0,0,0,0,0,0,0.2348,0.2346,0.2368,0.2369,0.2359,0.237,0.2371,0.2374,0.2373,0.2374,0.2378,0.2378,0.2378,0.2378,0.2377,0.2415,0.2377,0.2377,0.2377,0.2426,0.2428,0.2429,0,0,0,0,0,0,0.2347,0.2349,0.2367,0.236,0.2362,0.2371,0.2373,0.2374,0.2386,0.2378,0.2378,0.2391,0.2378,0.2377,0.2393,0.2414,0.2377,0.2377,0.2425,0.2427,0.2428,0.2468,0,0,0,0,0,0,0.2346,0.2349,0.2357,0.236,0.2363,0.2384,0.2374,0.2374,0.239,0.239,0.2389,0.2388,0.2377,0.2393,0.2393,0.2413,0.2377,0.2423,0.2425,0.2428,0.2465,0.2471,0.2476,0,0,0,0,0,0.2345,0.2352,0.2357,0.236,0.2371,0.2385,0.2387,0.2391,0.2391,0.24,0.2402,0.2389,0.2409,0.2394,0.2394,0.2414,0.2422,0.2425,0.2428,0.2462,0.247,0.2476,0,0,0,0,0,0,0.2341,0.2352,0.2358,0.2368,0.2383,0.2386,0.2396,0.24,0.2409,0.2413,0.2402,0.2401,0.2428,0.2417,0.2401,0.2439,0.2415,0.2418,0.2442,0.2448,0.2454,0.2479,0.2377,0,0,0,0,0,0.2345,0.2354,0.2368,0.2378,0.2387,0.2395,0.2404,0.241,0.2417,0.2421,0.242,0.2425,0.2438,0.244,0.2448,0.2462,0.2475,0.2477,0.2483,0.2488,0.2509,0.2544,0.2554,0.2439,0.2439,0.2439,0,0,0.2347,0.2355,0.236,0.2378,0.2388,0.2406,0.24,0.2419,0.2439,0.2419,0.2444,0.2448,0.2449,0.2471,0.2481,0.2463,0.2528,0.2492,0.2496,0.2515,0.2548,0.2559,0.2569,0.2441,0.2441,0.244,0,0,0.2351,0.2363,0.2373,0.2389,0.2413,0.2422,0.2432,0.2447,0.2461,0.248,0.2482,0.2503,0.2504,0.252,0.2524,0.2568,0.2563,0.2566,0.2606,0.2639,0.2648,0.2657,0.2688,0.27,0.2561,0.2561,0.2561,0,0.2355,0.2366,0.238,0.2398,0.2413,0.2432,0.2451,0.2471,0.249,0.2508,0.2494,0.2532,0.2531,0.2574,0.2592,0.2582,0.2598,0.2575,0.2646,0.2655,0.2663,0.2693,0.2705,0.2563,0.2563,0.2563,0.2563,0,0.2366,0.2382,0.2391,0.242,0.2441,0.246,0.2492,0.2518,0.253,0.2548,0.2593,0.2598,0.2621,0.2624,0.262,0.2685,0.2677,0.2654,0.2627,0.2677,0.2705,0.2717,0.2567,0.2566,0.2565,0.2565,0,0,0.2349,0.239,0.2394,0.2408,0.2454,0.2466,0.2516,0.2559,0.2592,0.2616,0.2654,0.2689,0.2701,0.271,0.2713,0.2742,0.2814,0.2728,0.2729,0.2758,0.2893,0.2847,0.2855,0.2799,0.2802,0.2804,0.2888,0,0.2352,0.2381,0.2407,0.2438,0.2454,0.2495,0.2536,0.2584,0.2619,0.2663,0.2695,0.2731,0.2731,0.2744,0.2781,0.2812,0.2848,0.2794,0.2843,0.2845,0.2795,0.2868,0.2621,0.2672,0.2899,0.2901,0.2903,0,0.2349,0.2369,0.2399,0.2443,0.2455,0.2483,0.255,0.2591,0.2671,0.27,0.2756,0.278,0.2855,0.2826,0.2924,0.289,0.2908,0.292,0.2923,0.2878,0.2821,0.2659,0.2684,0.2922,0.2921,0.2919,0.2918,0,0.2314,0.2359,0.2379,0.2395,0.2454,0.2482,0.2522,0.2602,0.2654,0.2734,0.2777,0.285,0.2902,0.2941,0.2993,0.2962,0.3085,0.3033,0.301,0.3006,0.2807,0.2782,0.31,0.3099,0.3099,0.3099,0.3099,0,0.2295,0.2309,0.2364,0.2371,0.2406,0.2461,0.2517,0.257,0.2665,0.2725,0.28,0.2859,0.2937,0.3012,0.3027,0.3076,0.3118,0.3048,0.3035,0.2814,0.2789,0.301,0.2998,0.3102,0.3101,0.3101,0.31,0,0.2248,0.2284,0.2307,0.2367,0.2388,0.2416,0.2514,0.2555,0.2658,0.2742,0.2773,0.2904,0.2998,0.3069,0.3145,0.3129,0.316,0.3158,0.29,0.2857,0.3046,0.3036,0.3137,0.3136,0.3136,0.3135,0.3135,0,0.2224,0.2232,0.2291,0.2306,0.2333,0.2389,0.2425,0.2533,0.2584,0.2755,0.2784,0.2928,0.2991,0.3112,0.3106,0.3135,0.3181,0.2916,0.281,0.3078,0.3056,0.3046,0.3037,0.2558,0.2553,0.2549,0.2546,0,0.2179,0.2205,0.2223,0.2257,0.229,0.2327,0.2391,0.2432,0.2558,0.264,0.2743,0.2814,0.2946,0.2873,0.294,0.2912,0.2889,0.2833,0.3186,0.2593,0.254,0.2516,0.2524,0.2509,0.2512,0.2515,0.2517,0.2519,0.2143,0.2147,0.2174,0.2193,0.2226,0.224,0.2235,0.231,0.2374,0.2451,0.2599,0.2626,0.2682,0.2657,0.2592,0.2546,0.2736,0.2594,0.2603,0.2617,0.2541,0.2491,0.2436,0.2439,0.2441,0.2444,0.2446,0,0.2082,0.2091,0.2107,0.2111,0.2095,0.2156,0.218,0.2147,0.2156,0.2267,0.2331,0.2197,0.218,0.2237,0.2111,0.2125,0.2065,0.2032,0.1919,0.196,0.1995,0.1882,0.1605,0.1602,0.1599,0.1597,0,0,0.2053,0.203,0.2027,0.1968,0.1975,0.1916,0.1902,0.1875,0.1904,0.1888,0.1896,0.2078,0.2176,0.1863,0.1829,0.1688,0.1801,0.1622,0.2302,0.2209,0.224,0.2334,0.2209,0,0,0,0,0]},{"header":{"parameterUnit":"m.s-1","parameterCategory":2,"la1":30.2991,"la2":30.254,"lo1":-89.0895,"lo2":-89.0444,"dy":0.0017,"dx":0.0017,"nx":28,"ny":28,"refTime":"2024-03-03T09:00:00:Z","depth":"2","parameterNumber":3,"parameterNumberName":"V-component_of_CURRENTS"},"data":[0,0,0,0,0,0,0,0,0,0,0,0,0,0,0,0,0,0,0,0,0,0,0,0,0,0,0,0,0,0,0,0,0,0,0,0,0,0,0,0,0,0,0,0,0,0,0,0,0,0,0,0,0,0,0,0,0,0,0.0175,0.0174,0,0.0134,0.0134,0.0133,0.0106,0.0105,0.0105,0.0105,0.0049,0.0048,0.0047,0,0,0,0,0,0,0,0,0,0,0,0,0,0.0184,0.0184,0.0175,0.0174,0.0174,0.0134,0.0134,0.0133,0.0106,0.0105,0.0105,0.0105,0.005,0.0048,0.0046,0,0,0,0,0,0,0,0,0,0,0,0,0,0.0164,0.0184,0.0175,0.0156,0.0154,0.0134,0.0134,0.0133,0.0106,0.0105,0.0105,0.0105,0.005,0.0048,0.0046,0.0037,0,0,0.004,0.0039,0,0,0,0,0,0,0,0,0.0166,0.0164,0.0159,0.0157,0.0155,0.0126,0.0116,0.01,0.0106,0.0123,0.0105,0.0105,0.0074,0.007,0.0062,0.0034,0.0032,0.004,0.0039,0.0038,0.0037,0,0,0,0,0,0,0,0.0167,0.0165,0.0158,0.0159,0.0156,0.0134,0.0132,0.0113,0.0099,0.0121,0.012,0.0117,0.0073,0.0064,0.006,0.0031,0.004,0.0038,0.0037,0.0036,-0.0004,-0.0004,0,0,0,0,0,0,0.0176,0.0167,0.0159,0.0157,0.0161,0.0135,0.0132,0.0134,0.0099,0.0094,0.0117,0.0116,0.0067,0.0063,0.0058,0.0059,0.0038,0.0036,0.0035,-0.0004,-0.0004,-0.0004,0,0,0,0,0,0,0.0177,0.0176,0.0161,0.0161,0.0158,0.0135,0.0138,0.0134,0.0128,0.0096,0.0091,0.0116,0.0067,0.0061,0.0047,0.0056,0.0035,0.0033,-0.0004,-0.0004,-0.0004,0.0051,0,0,0,0,0,0,0.0177,0.0177,0.0181,0.0162,0.0158,0.0157,0.0138,0.0133,0.0126,0.0124,0.0093,0.0088,0.0067,0.0051,0.0045,0.0052,0.0031,-0.0005,-0.0004,-0.0004,0.0049,0.0053,0.0056,0,0,0,0,0,0.0178,0.0189,0.0182,0.0181,0.0166,0.0157,0.0153,0.0135,0.0127,0.0128,0.0107,0.0089,0.0049,0.0049,0.0043,0.005,-0.0005,-0.0004,-0.0004,0.0047,0.0052,0.0056,0,0,0,0,0,0,0.0193,0.0186,0.0179,0.0186,0.0175,0.0153,0.0152,0.014,0.0124,0.0122,0.0092,0.0085,0.0075,0.0054,0.0056,0.0038,0.0018,0.0018,0.0059,0.0064,0.0068,0.0086,0.003,0,0,0,0,0,0.0199,0.0207,0.0193,0.0198,0.0195,0.0174,0.0168,0.0157,0.0141,0.0134,0.0112,0.0089,0.0071,0.0062,0.0041,0.0034,0.0011,0.0033,0.0037,0.004,0.005,0.002,0.0022,-0.0003,-0.0003,-0.0003,0,0,0.0205,0.0203,0.0206,0.0202,0.0191,0.0195,0.017,0.0167,0.0171,0.013,0.0128,0.0101,0.0071,0.0063,0.0056,0.0048,0.0035,0.0041,0.0044,0.0052,0.002,0.0023,0.0025,-0.0002,-0.0002,-0.0002,0,0,0.0225,0.0221,0.0234,0.0231,0.0222,0.0211,0.0214,0.0196,0.0189,0.0181,0.0154,0.0135,0.0106,0.0089,0.0077,0.0089,0.0055,0.0078,0.0115,0.0085,0.0087,0.0089,0.0066,0.0065,0.0082,0.0082,0.0082,0,0.0232,0.025,0.0235,0.0247,0.0251,0.0224,0.024,0.0229,0.0208,0.0209,0.0188,0.0147,0.012,0.0115,0.0118,0.0099,0.0077,0.0102,0.0091,0.0092,0.0093,0.0069,0.0067,0.0085,0.0085,0.0084,0.0084,0,0.0263,0.0276,0.0284,0.0294,0.0294,0.0303,0.029,0.0288,0.0272,0.0259,0.0245,0.0203,0.0183,0.0167,0.0146,0.014,0.0122,0.0099,0.0083,0.0099,0.0072,0.0069,0.0089,0.0088,0.0087,0.0086,0,0,0.0287,0.0304,0.0308,0.0325,0.0323,0.0331,0.0339,0.0343,0.0358,0.032,0.0331,0.0287,0.0261,0.0244,0.021,0.0183,0.0165,0.0148,0.0146,0.0132,0.0103,0.0086,0.0081,0.0138,0.0138,0.0138,0.0084,0,0.0318,0.0357,0.0355,0.0393,0.0414,0.0399,0.0415,0.0413,0.04,0.0402,0.0353,0.0344,0.0292,0.0283,0.0248,0.019,0.0159,0.0182,0.0085,0.0082,0.007,0.0078,0.0103,0.0057,0.0081,0.008,0.008,0,0.0355,0.0379,0.0424,0.0457,0.0465,0.0481,0.0508,0.0521,0.0511,0.0501,0.0474,0.0432,0.0393,0.0341,0.0247,0.0263,0.0192,0.0136,0.0132,0.0097,0.0059,0.0043,0.005,0.0075,0.0075,0.0076,0.0076,0,0.0392,0.043,0.0472,0.0483,0.0511,0.053,0.0546,0.0552,0.0581,0.0565,0.0578,0.0509,0.0489,0.0387,0.0271,0.0258,0.0162,0.0128,0.0043,0.0041,0.0035,0.0032,0.0057,0.0057,0.0057,0.0057,0.0057,0,0.0434,0.0466,0.0495,0.0518,0.058,0.0579,0.0639,0.0643,0.0663,0.0712,0.0637,0.0651,0.0499,0.0424,0.0301,0.0171,0.0182,0.0055,0.0027,0.0054,0.0054,0.0046,0.0046,0.0055,0.0056,0.0056,0.0056,0,0.0469,0.0485,0.0538,0.0579,0.06,0.0645,0.0709,0.0752,0.0761,0.0822,0.0821,0.0761,0.0664,0.0507,0.0346,0.0225,0.0091,0.0038,0.0084,0.0062,-0.0021,-0.0018,-0.0062,-0.0063,-0.0064,-0.0065,-0.0065,0,0.0491,0.0522,0.0589,0.063,0.0651,0.0718,0.0771,0.0801,0.0857,0.0898,0.0934,0.0857,0.0824,0.0579,0.0348,0.013,0.0095,0.0,-0.0026,-0.0009,-0.0032,-0.0028,-0.0024,-0.0014,-0.0014,-0.0014,-0.0014,0,0.0533,0.0556,0.0601,0.0688,0.0749,0.0833,0.0909,0.0969,0.1021,0.1071,0.1118,0.1092,0.0869,0.0649,0.0343,0.0194,0.0034,-0.001,-0.0001,0.0013,0.0032,0.0011,0.0014,-0.0015,-0.0015,-0.0015,-0.0015,-0.0015,0.0566,0.0606,0.0667,0.0751,0.0828,0.0934,0.1011,0.1097,0.12,0.128,0.1249,0.1215,0.0964,0.0576,0.0311,0.0027,0.004,-0.0068,-0.0065,-0.0063,-0.0047,-0.0031,-0.0087,-0.0087,-0.0087,-0.0088,-0.0088,0,0.0605,0.065,0.0725,0.0826,0.0914,0.0956,0.1095,0.1173,0.1299,0.1362,0.1393,0.1155,0.0912,0.0619,0.0205,-0.0042,-0.0057,-0.0125,-0.009,-0.0087,-0.0084,-0.0068,-0.0114,-0.0115,-0.0116,-0.0117,0,0,0.0626,0.0696,0.0733,0.0877,0.0954,0.1085,0.1171,0.1287,0.1362,0.142,0.14,0.135,0.1,0.0692,0.0359,0.0119,0.0072,0.0073,0.0123,0.0208,0.0213,-0.0021,0.0012,0,0,0,0,0]}],[{"header":{"parameterUnit":"m.s-1","parameterCategory":2,"la1":30.2991,"la2":30.254,"lo1":-89.0895,"lo2":-89.0444,"dy":0.0017,"dx":0.0017,"nx":28,"ny":28,"refTime":"2024-03-03T09:00:00:Z","depth":"4","parameterNumber":2,"parameterNumberName":"U-component_of_CURRENTS"},"data":[0,0,0,0,0,0,0,0,0,0,0,0,0,0,0,0,0,0,0,0,0,0,0,0,0,0,0,0,0,0,0,0,0,0,0,0,0,0,0,0,0,0,0,0,0,0,0,0,0,0,0,0,0,0,0,0,0,0,0.1492,0.1493,0,0.1549,0.1549,0.155,0.1598,0.1599,0.16,0.1601,0.1659,0.166,0.1661,0,0,0,0,0,0,0,0,0,0,0,0,0,0.1415,0.1416,0.1492,0.1493,0.1494,0.1549,0.1549,0.155,0.1598,0.1599,0.16,0.1601,0.1659,0.166,0.1661,0,0,0,0,0,0,0,0,0,0,0,0,0,0.1456,0.1417,0.1492,0.1526,0.153,0.1549,0.1549,0.155,0.1598,0.1599,0.16,0.1601,0.1658,0.166,0.1661,0.1648,0,0,0.1665,0.1666,0,0,0,0,0,0,0,0,0.1454,0.1459,0.152,0.1524,0.1528,0.1569,0.1544,0.1584,0.1598,0.157,0.1601,0.1602,0.1629,0.1633,0.1639,0.1651,0.1654,0.1665,0.1666,0.1667,0.1667,0,0,0,0,0,0,0,0.1451,0.1457,0.1513,0.1521,0.1526,0.1535,0.1542,0.1551,0.1592,0.1573,0.1577,0.1586,0.1631,0.1638,0.1641,0.1654,0.1665,0.1666,0.1667,0.1668,0.1758,0.176,0,0,0,0,0,0,0.1447,0.1454,0.1511,0.1515,0.1495,0.1535,0.1543,0.1553,0.1592,0.1599,0.1585,0.1588,0.1635,0.1639,0.1643,0.1716,0.1667,0.1668,0.1669,0.1757,0.1759,0.176,0,0,0,0,0,0,0.1445,0.1452,0.1509,0.1487,0.1495,0.1536,0.1547,0.1554,0.1595,0.1601,0.1609,0.1622,0.1636,0.1641,0.1685,0.1715,0.1668,0.167,0.1755,0.1757,0.176,0.1807,0,0,0,0,0,0,0.1443,0.145,0.1472,0.1487,0.1496,0.1542,0.1546,0.1554,0.1597,0.1603,0.1635,0.164,0.1637,0.1683,0.1686,0.1716,0.1671,0.1753,0.1756,0.1759,0.1803,0.181,0.1817,0,0,0,0,0,0.144,0.1458,0.1472,0.148,0.1519,0.1543,0.1549,0.1579,0.1598,0.162,0.1647,0.1641,0.1704,0.1685,0.1688,0.172,0.1751,0.1755,0.1759,0.18,0.1809,0.1816,0,0,0,0,0,0,0.1437,0.1465,0.1481,0.1509,0.1536,0.1552,0.158,0.1598,0.1636,0.1653,0.1658,0.1664,0.1716,0.1712,0.1691,0.1756,0.1728,0.1732,0.1758,0.1767,0.1773,0.1785,0.1672,0,0,0,0,0,0.1445,0.1469,0.1493,0.152,0.1537,0.1565,0.1586,0.1607,0.1634,0.1654,0.1677,0.1703,0.1726,0.1744,0.1762,0.1794,0.1799,0.1818,0.1825,0.1831,0.1844,0.1872,0.1883,0.1772,0.1772,0.1772,0,0,0.1451,0.1471,0.1487,0.1523,0.1548,0.1575,0.1581,0.1623,0.1655,0.1653,0.1713,0.1731,0.1742,0.1782,0.1804,0.1787,0.1866,0.1835,0.184,0.1851,0.1877,0.1888,0.1897,0.1775,0.1774,0.1774,0,0,0.1464,0.1497,0.1519,0.1545,0.1589,0.1605,0.1625,0.1663,0.1695,0.174,0.1755,0.1795,0.1825,0.1844,0.1853,0.1909,0.1904,0.1919,0.196,0.1987,0.1996,0.2004,0.2027,0.2037,0.1918,0.1918,0.1918,0,0.1475,0.1503,0.1531,0.1558,0.1585,0.1623,0.1653,0.1686,0.1737,0.1765,0.1769,0.184,0.1853,0.1902,0.1928,0.1925,0.1939,0.1924,0.1995,0.2003,0.201,0.2032,0.2042,0.1921,0.1921,0.192,0.192,0,0.1494,0.1531,0.1548,0.1595,0.1628,0.1662,0.1706,0.1752,0.1791,0.1819,0.1888,0.191,0.1951,0.1963,0.1964,0.2029,0.2023,0.2001,0.1971,0.2024,0.2044,0.2054,0.1925,0.1924,0.1923,0.1922,0,0,0.1478,0.1548,0.1558,0.1584,0.1653,0.1673,0.174,0.1797,0.1842,0.1896,0.195,0.2004,0.2028,0.2042,0.2055,0.2082,0.2149,0.2073,0.2074,0.2092,0.2216,0.2079,0.2077,0.2141,0.2143,0.2144,0.2209,0,0.1488,0.1537,0.1575,0.163,0.1657,0.1716,0.1768,0.183,0.1885,0.1946,0.1991,0.2048,0.2054,0.2084,0.2118,0.2145,0.2178,0.2134,0.2167,0.2168,0.2035,0.2084,0.2151,0.2216,0.2218,0.222,0.2221,0,0.1488,0.1523,0.1577,0.1644,0.1663,0.1708,0.1796,0.185,0.1944,0.1987,0.2058,0.2095,0.2173,0.2155,0.224,0.2215,0.2231,0.224,0.2242,0.2105,0.2049,0.2153,0.2238,0.2237,0.2236,0.2235,0.2234,0,0.1445,0.1519,0.1562,0.1587,0.1672,0.1717,0.1774,0.1869,0.1926,0.2029,0.2078,0.2159,0.2217,0.2253,0.2299,0.2278,0.2371,0.2332,0.2225,0.2215,0.2298,0.2288,0.2386,0.2386,0.2386,0.2386,0.2386,0,0.142,0.1457,0.155,0.1571,0.1629,0.1702,0.1779,0.1846,0.1952,0.2012,0.2108,0.2159,0.2248,0.231,0.2325,0.2311,0.2396,0.2245,0.2224,0.2316,0.2308,0.2305,0.2294,0.2388,0.2388,0.2387,0.2387,0,0.1362,0.1425,0.1477,0.1575,0.161,0.1657,0.1781,0.1827,0.1945,0.203,0.207,0.2193,0.2262,0.2332,0.2395,0.2335,0.2334,0.2308,0.2422,0.2405,0.2154,0.2146,0.2179,0.2174,0.2171,0.2168,0.2165,0,0.1332,0.1356,0.1468,0.1502,0.1553,0.1636,0.1686,0.181,0.1861,0.2026,0.2048,0.2174,0.2236,0.2221,0.2298,0.2313,0.2287,0.227,0.2192,0.2157,0.2135,0.2132,0.2128,0.216,0.2159,0.2158,0.2157,0,0.1274,0.1332,0.1375,0.1447,0.1507,0.1558,0.1644,0.1668,0.1804,0.1931,0.1975,0.2014,0.2089,0.2128,0.2167,0.217,0.2265,0.2231,0.2238,0.2164,0.2134,0.2115,0.2116,0.2144,0.2146,0.2147,0.2148,0,0.1237,0.1254,0.1323,0.1371,0.1439,0.1453,0.1511,0.1562,0.1628,0.1804,0.1814,0.1943,0.2062,0.2056,0.2088,0.2086,0.2043,0.1962,0.1981,0.1996,0.1905,0.1838,0.1749,0,0,0,0,0,0.119,0.1195,0.1236,0.1274,0.1334,0.1371,0.1464,0.1524,0.1655,0.1638,0.1721,0.1777,0.1823,0.1893,0.1853,0.201,0.2055,0.1954,0.1971,0.2075,0.2089,0.1999,0,0,0,0,0,0,0.1156,0.1195,0.1202,0.1181,0.1185,0.1231,0.1284,0.1373,0.1372,0.1517,0.1552,0.1665,0.1741,0.1827,0.1818,0.1839,0.1811,0.204,0.2036,0.2067,0.208,0.2092,0.2004,0,0,0,0,0]},{"header":{"parameterUnit":"m.s-1","parameterCategory":2,"la1":30.2991,"la2":30.254,"lo1":-89.0895,"lo2":-89.0444,"dy":0.0017,"dx":0.0017,"nx":28,"ny":28,"refTime":"2024-03-03T09:00:00:Z","depth":"4","parameterNumber":3,"parameterNumberName":"V-component_of_CURRENTS"},"data":[0,0,0,0,0,0,0,0,0,0,0,0,0,0,0,0,0,0,0,0,0,0,0,0,0,0,0,0,0,0,0,0,0,0,0,0,0,0,0,0,0,0,0,0,0,0,0,0,0,0,0,0,0,0,0,0,0,0,0.0163,0.0162,0,0.0138,0.0137,0.0137,0.0123,0.0123,0.0123,0.0123,0.0087,0.0086,0.0086,0,0,0,0,0,0,0,0,0,0,0,0,0,0.0167,0.0167,0.0163,0.0162,0.0162,0.0138,0.0137,0.0137,0.0123,0.0123,0.0123,0.0123,0.0088,0.0087,0.0085,0,0,0,0,0,0,0,0,0,0,0,0,0,0.0155,0.0167,0.0163,0.0153,0.0152,0.0138,0.0137,0.0137,0.0123,0.0123,0.0123,0.0123,0.0088,0.0087,0.0085,0.0076,0,0,0.0081,0.008,0,0,0,0,0,0,0,0,0.0156,0.0155,0.0154,0.0153,0.0152,0.0134,0.0126,0.0116,0.0123,0.0133,0.0123,0.0123,0.0102,0.01,0.0094,0.0075,0.0073,0.0081,0.008,0.0079,0.0079,0,0,0,0,0,0,0,0.0157,0.0156,0.0152,0.0154,0.0153,0.0138,0.0137,0.0124,0.0117,0.0132,0.0131,0.0129,0.0102,0.0096,0.0093,0.0073,0.0081,0.008,0.0079,0.0078,0.005,0.005,0,0,0,0,0,0,0.0163,0.0157,0.0153,0.0152,0.0155,0.0139,0.0137,0.0139,0.0118,0.0115,0.0129,0.0129,0.0098,0.0095,0.0092,0.0095,0.0079,0.0078,0.0077,0.0049,0.005,0.005,0,0,0,0,0,0,0.0163,0.0163,0.0154,0.0154,0.0152,0.0139,0.0141,0.0139,0.0137,0.0116,0.0112,0.0131,0.0098,0.0094,0.0086,0.0093,0.0077,0.0076,0.0049,0.005,0.005,0.0091,0,0,0,0,0,0,0.0163,0.0163,0.0168,0.0154,0.0152,0.0152,0.0141,0.0138,0.0136,0.0135,0.0116,0.0112,0.0098,0.0089,0.0085,0.0091,0.0075,0.0049,0.0049,0.005,0.009,0.0093,0.0095,0,0,0,0,0,0.0164,0.0172,0.0168,0.0168,0.0158,0.0152,0.015,0.014,0.0136,0.0138,0.0126,0.0113,0.0087,0.0088,0.0083,0.0089,0.0049,0.0049,0.005,0.0088,0.0092,0.0095,0,0,0,0,0,0,0.0175,0.0171,0.0166,0.0173,0.0165,0.015,0.0152,0.0144,0.0136,0.0136,0.0116,0.0111,0.0106,0.0091,0.0092,0.008,0.0065,0.0065,0.0096,0.01,0.0102,0.0118,0.0074,0,0,0,0,0,0.018,0.0186,0.0176,0.0181,0.018,0.0166,0.0163,0.0157,0.0147,0.0143,0.0129,0.0114,0.0102,0.0097,0.0082,0.0077,0.0057,0.0077,0.008,0.0082,0.0091,0.0064,0.0065,0.005,0.005,0.005,0,0,0.0185,0.0184,0.0187,0.0184,0.0178,0.0182,0.0165,0.0164,0.0169,0.014,0.0143,0.0124,0.0103,0.0097,0.0094,0.0087,0.0074,0.0082,0.0085,0.0093,0.0064,0.0065,0.0067,0.0051,0.0051,0.005,0,0,0.02,0.0199,0.0209,0.0207,0.0202,0.0196,0.0198,0.0187,0.0184,0.018,0.0162,0.015,0.013,0.0118,0.0109,0.0118,0.009,0.011,0.0139,0.0112,0.0113,0.0114,0.0087,0.0085,0.0113,0.0113,0.0113,0,0.0206,0.022,0.021,0.0219,0.0224,0.0205,0.0219,0.0212,0.02,0.0201,0.0187,0.016,0.0141,0.0138,0.0141,0.0126,0.0104,0.013,0.0117,0.0117,0.0117,0.0089,0.0086,0.0115,0.0115,0.0114,0.0114,0,0.0229,0.0241,0.0247,0.0256,0.0258,0.0267,0.0258,0.0259,0.0251,0.0242,0.0234,0.0203,0.019,0.0178,0.0163,0.0157,0.0139,0.0123,0.0111,0.0121,0.009,0.0087,0.0118,0.0117,0.0116,0.0116,0,0,0.0244,0.0261,0.0265,0.028,0.0282,0.0288,0.0298,0.0303,0.0317,0.029,0.03,0.027,0.0251,0.0239,0.0213,0.0189,0.0167,0.0161,0.0159,0.014,0.0106,0.0089,0.0083,0.0147,0.0147,0.0147,0.0083,0,0.0267,0.0298,0.03,0.0332,0.0349,0.0342,0.0357,0.0358,0.0351,0.0353,0.0317,0.0313,0.0275,0.027,0.024,0.0189,0.0161,0.0186,0.0094,0.0092,0.008,0.0079,0.0146,0.008,0.0079,0.0078,0.0078,0,0.0292,0.0312,0.035,0.0382,0.0389,0.0405,0.0431,0.0444,0.0438,0.0432,0.0413,0.0381,0.035,0.0312,0.0227,0.0244,0.0182,0.0135,0.0131,0.0101,0.0069,0.0067,0.0071,0.0072,0.0072,0.0073,0.0073,0,0.0314,0.0349,0.0386,0.0396,0.0424,0.0444,0.0462,0.0469,0.0493,0.0485,0.0493,0.0439,0.042,0.0336,0.0235,0.0231,0.0134,0.0113,0.0037,0.0035,0.0051,0.0051,0.005,0.005,0.005,0.0051,0.0051,0,0.0339,0.0369,0.0403,0.0422,0.0476,0.0482,0.0534,0.0541,0.0559,0.0593,0.0541,0.0542,0.0425,0.0353,0.0254,0.0136,0.0144,0.0045,0.0019,0.0069,0.0072,0.0048,0.0049,0.0048,0.0049,0.0049,0.005,0,0.0357,0.0377,0.0424,0.0467,0.0489,0.0528,0.059,0.0623,0.0635,0.0675,0.0676,0.0619,0.0524,0.0398,0.0258,0.0167,0.0052,0.0006,0.0073,0.0051,-0.0034,-0.0031,-0.0081,-0.0083,-0.0083,-0.0084,-0.0085,0,0.0367,0.0393,0.0461,0.0497,0.0521,0.0583,0.0628,0.0661,0.0699,0.0721,0.074,0.0665,0.0608,0.0404,0.026,0.0063,0.003,-0.0034,-0.0038,-0.0026,-0.0047,-0.0042,-0.0037,-0.0086,-0.0087,-0.0087,-0.0087,0,0.0386,0.0413,0.0453,0.053,0.0587,0.0658,0.0722,0.0756,0.0798,0.0807,0.0794,0.0689,0.0579,0.0408,0.0252,0.011,0.0006,-0.0044,-0.0043,-0.0048,-0.0033,-0.0051,-0.0046,-0.009,-0.009,-0.0089,-0.0089,0,0.0403,0.0434,0.0489,0.0558,0.0634,0.0709,0.0745,0.0789,0.0829,0.0847,0.0837,0.072,0.065,0.0432,0.0291,0.0146,0.0104,0.0051,0.0046,0.0047,0.0097,0.0136,0.0112,0,0,0,0,0,0.0415,0.0449,0.0511,0.0588,0.0663,0.0713,0.0797,0.0827,0.0866,0.0863,0.0854,0.0751,0.0543,0.0455,0.0307,0.0259,0.0069,0.0078,0.0004,-0.0108,-0.0104,-0.007,0,0,0,0,0,0,0.0422,0.0477,0.0507,0.0601,0.0657,0.0748,0.0806,0.0836,0.0836,0.0849,0.0743,0.0699,0.0497,0.0624,0.0298,0.0255,0.0183,-0.0015,-0.0019,-0.011,-0.0107,-0.0104,-0.0067,0,0,0,0,0]}]]